Location: Antioch Baptist Church
(32.6696°N, 85.7327°W)
Time: 11:41:53
(UTC+00:00)

Cosmos 2322 Rocket - Pass Details

Date: 14 July 2020
Orbit: 832 x 851 km, 71.0° (Epoch: 08 August)

Event Time Altitude Azimuth Distance (km) Brightness Sun altitude
Rises 09:35:36 0° 345° (NNW) 3,403 5.7 -13.4°
Reaches altitude 10° 09:38:07 10° 351° (N) 2,468 5.0 -13.0°
Maximum altitude 09:43:38 51° 67° (ENE) 1,053 3.2 -12.0°
Drops below altitude 10° 09:49:08 10° 142° (SE) 2,466 4.7 -11.1°
Sets 09:51:39 0° 148° (SSE) 3,400 5.3 -10.6°
